Regional Weather Roundup
Issued by NWS Midland/Odessa, TX

Skip options and go directly to product.
Home | Oldest Version | Next Version | Current Version | All | Text Only | Save Text | Print | Product List | Glossary On

Skip product version selection by date and time.   
098
ASUS44 KMAF 291501
RWRMAF
MIDLAND AREA WEATHER ROUNDUP
NATIONAL WEATHER SERVICE MIDLAND TX
1000 AM CDT WED JUL 29 2015

...IN SOUTHWEST TEXAS AND SOUTHEAST NEW MEXICO...

CITY           SKY/WX    TMP DP  RH WIND       PRES   REMARKS
ALPINE         PTSUNNY   72  64  76 CALM      30.27R
ANDREWS        FAIR      81  63  53 W6        30.16R
ARTESIA        MOSUNNY   79  66  65 N7        30.20S
BIG SPRING     SUNNY     80  64  56 S8        30.15R
CARLSBAD       MOSUNNY   81  64  56 N7        30.16R
DRYDEN           N/A     82  70  66 S8        30.07R
FORT STOCKTON  SUNNY     80  65  59 W8        30.12R
GUAD PASS      PTSUNNY   70  60  70 NE18      30.28R
HOBBS          SUNNY     79  61  53 N10       30.20R
MARFA          CLOUDY    73  63  68 E12       30.24R
MIDLAND AIRPK  SUNNY     83  63  50 S7        30.14R
MIDLAND INTL   SUNNY     83  64  52 CALM      30.13R
ODESSA         SUNNY     82  61  48 S8        30.14R
PECOS          SUNNY     82  61  49 N6        30.10R
PRESIDIO       FAIR      85  60  42 MISG      30.08R
SEMINOLE       SUNNY     80  61  53 N9        30.18R
SNYDER         SUNNY     82  67  60 S9        30.12R
WINK           SUNNY     85  61  44 E9        30.10R
$$
...OTHER STATIONS IN TEXAS...

CITY           SKY/WX    TMP DP  RH WIND       PRES   REMARKS
ABILENE        MOSUNNY   84  70  62 S9        30.09R
AMARILLO       SUNNY     73  63  70 N14       30.24R
AUSTIN         MOSUNNY   83  74  74 S8        30.07R
BROWNSVILLE    MOSUNNY   88  76  67 S16       30.00R
CORPUS CHRISTI PTSUNNY   87  77  72 S13       30.02R
DALLAS FTW     MOSUNNY   87  70  56 S8        30.05R
DEL RIO        MOSUNNY   83  71  67 SE9       30.02R
EL PASO        CLOUDY    76  64  66 N7        30.17S
HOUSTON INT    MOSUNNY   87  76  69 CALM      30.06R
LUBBOCK        MOSUNNY   78  65  63 NE12      30.19R
SAN ANGELO     SUNNY     85  69  58 CALM      30.08R
SAN ANTONIO    MOSUNNY   83  73  72 S7        30.07R
WACO           SUNNY     84  72  67 VRB6      30.07R
WICHITA FALLS  NOT AVBL
$$
...OTHER LOCATIONS IN NEW MEXICO...

CITY           SKY/WX    TMP DP  RH WIND       PRES   REMARKS
ALAMAGORDO     PTSUNNY   72  63  73 CALM      30.23S
ALBUQUERQUE    PTSUNNY   72  55  55 N6        30.31R
CANNON AFB     SUNNY     75  65  71 NE6       30.25R
CLOVIS         SUNNY     73  64  73 NE13      30.27R
HOLLOMAN AFB   NOT AVBL
ROSWELL        PTSUNNY   77  64  64 NE3       30.21R
RUIDOSO          N/A    N/A N/A N/A MISG        N/A
SANTA FE       CLOUDY    68  53  58 S5        30.36R
TRUTH OR CONSE CLOUDY    71  64  78 S3        30.25R
TUCUMCARI      MOSUNNY   74  63  68 NE12      30.25R
$$

USA.gov is the U.S. government's official web portal to all federal, state and local government web resources and services.